* Astronomy

Members Login
Post Info TOPIC: Asteroid 2010 LH14


L

Posts: 131433
Date:
Asteroid 2010 LH14
Permalink  
 


Orbital elements:
2010 LH14 Earth MOID = 0.0552 AU
Epoch 2010 July 23.0 TT = JDT 2455400.5 MPC
M 5.11514 (2000.0) P Q
n 0.29209726 Peri. 80.37982 +0.30493292 +0.95160884
a 2.2496643 Node 207.46814 -0.90302387 +0.27616746
e 0.5848211 Incl. 4.74609 -0.30259512 +0.13480407
P 3.37 H 22.0 G 0.15 U 8

MPEC 2010 - L26


Asteroid 2010 LH14 was discovered by the WISE satellite on the 2nd June, 2010.
The 100 - 220 metre wide asteroid 2010 LH14 will make a close pass (37.1 lunar distances, 0.0954 AU), travelling at 9.67 km/second, to the Earth-Moon system on the 17th June, 2010 @ 22:03 UT.

See more

The Lunar Distance (LD), the distance between Earth and the Moon, equals 384,401 km, (or 0.00256 AU).


__________________
Page 1 of 1  sorted by
Quick Reply

Please log in to post quick replies.



Create your own FREE Forum
Report Abuse
Powered by ActiveBoard